Find THEMIS E

NORAD ID: 30798 Int'l Des: 2007-004 Owner: GSFC Country: US operational
HEOELLIPTICALHEO_ELLIPTICAL

Live Position

Loading 3D Globe...

About THEMIS E

Description loading...

Upcoming Passes

Passes for default location (London). Set your location on the main map for personalized predictions.

Altitude History

Loading altitude history...

Two-Line Element Set

1 30798U 07004E 26106.19763641 .00000101 00000-0 00000-0 0 9992
2 30798 5.5985 101.9133 8448524 204.2656 225.3399 0.88587783 65377
Epoch: Apr 16, 2026 • Age: 13 hours

Current Status

Altitude 34968.4 km
Velocity 3.25 km/s
Sub-Earth Point -1.12°S, 18.34°W
Launch Date Feb 17, 2007
Age 19.1 years
Type other

Technical Details

Classification Payload
Mass 125.00 kg
Dry Mass 76.00 kg
Total Mass 125.00 kg
Length 0.50 m
Diameter 0.80 m
Span 49.60 m
Shape Box + 2 Ant
Manufacturer SWALES
Bus Type ATK-A100
Phase Status In Orbit
Owner/State GSFC/US

Most Searched